Regional Weather Roundup
Issued by NWS Bismarck, ND

Home | Current Version | Previous Version | Text Only | Print | Product List | Glossary On
Versions: 1 2 3 4 5 6 7 8 9 10 11 12 13 14 15 16 17 18 19 20 21 22 23 24 25 26 27 28 29 30 31 32 33 34 35 36 37 38 39 40 41 42 43 44 45 46 47 48 49 50
000
ASUS43 KBIS 281310
RWRBIS

NWR BROADCAST TEXT
NATIONAL WEATHER SERVICE BISMARCK ND
800 AM CDT FRI APR 28 2017

NOTE: "FAIR" INDICATES FEW OR NO CLOUDS BELOW 12,000 FEET WITH NO
SIGNIFICANT WEATHER AND/OR OBSTRUCTIONS TO VISIBILITY.


CITY           SKY/WX    TMP DP  RH WIND       PRES   REMARKS
WILLISTON      FAIR      33  26  75 NE5       29.99R
MINOT          FAIR      31  26  82 CALM      29.98R
MINOT AFB      FAIR      32  26  78 N3        29.98R
BISMARCK       FAIR      32  28  85 CALM      29.98R
DICKINSON      FAIR      29  23  78 E6        29.93R
GARRISON         N/A     29  25  85 N6        29.97R
HETTINGER ARPT FAIR      31  26  82 NE9       29.94R
JAMESTOWN      FAIR      32  28  85 N8        29.94R
HAZEN          FAIR      27  23  86 CALM      30.00R FOG
LINTON           N/A     28  28 100 CALM      29.98R
MANDAN         FAIR      32  28  86 N7        29.97R
STANLEY        FAIR      32  32 100 CALM      30.00R
TIOGA          FAIR      27  27 100 CALM      29.99R
WATFORD CITY   FAIR      28  23  80 CALM      29.98R
$$

CITY           SKY/WX    TMP DP  RH WIND       PRES   REMARKS
GRAND FORKS    FAIR      36  29  75 NW8       29.94R
GRAND FORKS AF FAIR      35  27  75 NW8       29.94R
DEVILS LAKE    FAIR      33  26  75 N10       29.96R
FARGO          FAIR      33  29  85 N9        29.93R
CAVALIER       FAIR      34  21  60 NW10      29.94R
GRAFTON        FAIR      34  25  69 NW12      29.95S
GWINNER        SUNNY     36  30  80 MISG      29.93R
LANGDON        FAIR      28  23  80 NW10      29.95R WCI  19
ROLLA          FAIR      32  16  51 NW10      29.97R
$$

CITY           SKY/WX    TMP DP  RH WIND       PRES   REMARKS
ABERDEEN       FAIR      32  27  81 N5        29.95R
MOBRIDGE       FAIR      36  26  67 E9        29.92R
BUFFALO          N/A     33  26  75 NE7       29.83R
RAPID CITY     CLOUDY    35  30  82 N13       29.83R
GLASGOW        MOCLDY    40  18  41 SE9       29.94R
SIDNEY         FAIR      35  24  64 E6        29.99R
WOLF POINT     CLOUDY    33  20  58 E5        29.97R
GLENDIVE       FAIR      33  22  63 NE6       29.95R
MILES CITY     FAIR      36  25  64 NE12      29.90R
BAKER          FAIR      29  23  78 E5        29.92R
$$

CITY           SKY/WX    TMP DP  RH WIND       PRES   REMARKS
BILLINGS       CLOUDY    38  36  92 NE12      29.88R
GREAT FALLS    CLOUDY    36  33  89 SW3       29.95R
REGINA         PTSUNNY   30  23  74 SE7       29.98R
ESTEVAN        MOSUNNY   32  28  86 NE2       30.00R
$$




USA.gov is the U.S. government's official web portal to all federal, state and local government web resources and services.